TimeEST,TemperatureF,Dew PointF,Humidity,Sea Level PressureIn,VisibilityMPH,Wind Direction,Wind SpeedMPH,Gust SpeedMPH,PrecipitationIn,Events,Conditions,WindDirDegrees,DateUTC
12:13 AM,26.6,23.0,86,29.94,7.0,Calm,Calm,-,N/A,,Overcast,0,2013-02-06 05:13:00
12:53 AM,27.0,23.0,85,29.95,4.0,Calm,Calm,-,0.00,Snow,Light Snow,0,2013-02-06 05:53:00
1:14 AM,26.6,23.0,86,29.94,4.0,Calm,Calm,-,0.00,Snow,Light Snow,0,2013-02-06 06:14:00
1:34 AM,26.6,23.0,86,29.94,4.0,Calm,Calm,-,0.00,Snow,Light Snow,0,2013-02-06 06:34:00
1:53 AM,26.1,23.0,88,29.94,4.0,Calm,Calm,-,0.00,Snow,Light Snow,0,2013-02-06 06:53:00
2:53 AM,27.0,24.1,89,29.93,6.0,Calm,Calm,-,0.00,,Overcast,0,2013-02-06 07:53:00
3:53 AM,27.0,23.0,85,29.93,4.0,Calm,Calm,-,0.00,Snow,Light Snow,0,2013-02-06 08:53:00
4:25 AM,26.6,24.8,93,29.93,6.0,SE,4.6,-,0.00,,Overcast,140,2013-02-06 09:25:00
4:53 AM,27.0,24.1,89,29.95,7.0,Calm,Calm,-,0.00,,Overcast,0,2013-02-06 09:53:00
5:16 AM,26.6,24.8,93,29.96,7.0,Calm,Calm,-,N/A,,Overcast,0,2013-02-06 10:16:00
5:53 AM,27.0,24.1,89,29.96,6.0,Calm,Calm,-,N/A,,Overcast,0,2013-02-06 10:53:00
6:53 AM,28.0,24.1,85,29.99,6.0,SSW,3.5,-,N/A,,Overcast,200,2013-02-06 11:53:00
7:15 AM,26.6,23.0,86,29.99,4.0,SE,4.6,-,N/A,,Scattered Clouds,130,2013-02-06 12:15:00
7:53 AM,27.0,24.1,89,30.02,5.0,Calm,Calm,-,N/A,,Clear,0,2013-02-06 12:53:00
8:53 AM,30.0,25.0,82,30.04,5.0,Calm,Calm,-,N/A,,Haze,0,2013-02-06 13:53:00
9:53 AM,32.0,25.0,75,30.03,6.0,Variable,3.5,-,N/A,,Haze,0,2013-02-06 14:53:00
10:53 AM,37.0,24.1,59,30.05,9.0,Variable,4.6,-,N/A,,Partly Cloudy,0,2013-02-06 15:53:00
11:53 AM,37.9,21.9,53,30.03,10.0,West,5.8,-,N/A,,Scattered Clouds,260,2013-02-06 16:53:00
12:53 PM,39.0,17.1,41,30.04,10.0,WNW,6.9,18.4,N/A,,Overcast,300,2013-02-06 17:53:00
1:53 PM,37.9,17.1,43,30.06,10.0,NW,10.4,-,N/A,,Overcast,310,2013-02-06 18:53:00
2:53 PM,37.9,16.0,41,30.07,10.0,NW,10.4,17.3,N/A,,Mostly Cloudy,310,2013-02-06 19:53:00
3:53 PM,37.9,15.1,39,30.09,10.0,WNW,10.4,16.1,N/A,,Clear,300,2013-02-06 20:53:00
4:53 PM,37.0,14.0,39,30.13,10.0,NNW,11.5,-,N/A,,Clear,330,2013-02-06 21:53:00
5:53 PM,35.1,12.9,40,30.17,10.0,NW,9.2,-,N/A,,Clear,320,2013-02-06 22:53:00
6:53 PM,33.1,7.0,34,30.22,10.0,WNW,8.1,19.6,N/A,,Clear,300,2013-02-06 23:53:00
7:53 PM,30.9,6.1,35,30.26,10.0,WNW,11.5,16.1,N/A,,Clear,290,2013-02-07 00:53:00
8:53 PM,30.0,-0.9,27,30.29,10.0,NW,10.4,-,N/A,,Clear,310,2013-02-07 01:53:00
9:53 PM,28.9,-2.0,26,30.32,10.0,NW,6.9,-,N/A,,Clear,310,2013-02-07 02:53:00
10:53 PM,27.0,-0.0,31,30.33,10.0,NW,10.4,-,N/A,,Clear,320,2013-02-07 03:53:00
11:53 PM,25.0,1.0,36,30.36,10.0,NW,5.8,-,N/A,,Clear,320,2013-02-07 04:53:00